• Join FlightAware (Why Join?)
  • Login
  • US Flag GB Flag 
22:03 EST


 

Airport Tracker/Info


-or-


 

Live Flight TrackerFlight Track Log ✈ DAL6115 ✈ 12-Apr-2013 ✈ KJFK - KROC

Flight Track Log - Related Links

Times and Time Zones

All times are in EDT time to prevent confusion due to time zone crossing. See the DAL6115 flight status page for this flight to view local times or setup timezone preferences in your user account.

Time Position Orientation Groundspeed Altitude Reporting Facility
EDT Latitude Longitude Course Direction KTS MPH feet Rate Location/Type
10:08 40.6500 -73.7500 72° East 147 169 1,700  Level New York TRACON
10:09 40.6667 -73.6833 72° East 197 227 3,200 1,560 Climbing New York TRACON
10:10 40.6667 -73.6000 90° East 252 290 4,700 1,800 Climbing New York TRACON
10:11 40.7167 -73.5000 57° Northeast 315 362 6,800 2,040 Climbing New York TRACON
10:12 40.8000 -73.4667 17° North 329 379 9,100 2,100 Climbing New York TRACON
10:13 40.8833 -73.5167 336° Northwest 315 362 11,100 1,620 Climbing New York TRACON
10:14 40.9667 -73.5833 329° Northwest 336 387 12,400 1,620 Climbing New York TRACON
10:16 41.0325 -73.8244 290° West 313 360 16,800 1,320 Climbing New York Center
10:17 41.0647 -73.9497 289° West 313 360 17,100 300 Climbing New York Center
10:18 41.0931 -74.0556 290° West 325 374 17,500 900 Climbing New York Center
10:19 41.1289 -74.1894 290° West 351 404 19,000 1,260 Climbing New York Center
10:20 41.1606 -74.3125 289° West 351 404 20,000 480 Climbing New York Center
10:21 41.1922 -74.4381 289° West 357 411 20,000  Level New York Center
10:22 41.2236 -74.5583 289° West 357 411 20,000  Level New York Center
10:23 41.2847 -74.6722 306° West 357 411 20,000  Level New York Center
10:24 41.3517 -74.7839 309° West 379 436 20,000  Level New York Center
10:25 41.4228 -74.8933 311° West 391 450 20,000  Level New York Center
10:26 41.4897 -75.0083 308° West 397 457 20,000  Level New York Center
10:27 41.5525 -75.1147 308° West 386 444 20,000  Level New York Center
10:28 41.5958 -75.2369 295° West 376 433 20,000  Level New York Center
10:29 41.6331 -75.3531 293° West 357 411 20,000  Level New York Center
10:30 41.6656 -75.4747 290° West 346 398 20,000  Level New York Center
10:31 41.7006 -75.5939 292° West 346 398 20,000  Level New York Center
10:32 41.7331 -75.7158 290° West 346 398 20,000  Level New York Center
10:33 41.7694 -75.8408 291° West 352 405 20,000  Level New York Center
10:34 41.8050 -75.9325 298° West 357 411 20,000  Level New York Center
10:35 41.8911 -76.0533 314° West 373 429 20,000 -420 Level New York Center
10:36 41.9575 -76.1564 311° West 373 429 19,200 -1,080 Descending New York Center
10:37 42.0236 -76.2539 312° West 357 411 17,900 -1,200 Descending New York Center
10:38 42.0900 -76.3517 312° West 357 411 16,800 -1,020 Descending New York Center
10:39 42.1542 -76.4467 312° West 357 411 16,000 -420 Descending New York Center
10:40 42.2183 -76.5389 313° West 352 405 16,000  Level New York Center
10:41 42.2514 -76.5883 312° West 355 409 16,000  Level Cleveland Center
10:42 42.3150 -76.6825 312° West 355 409 16,000  Level Cleveland Center
10:43 42.3808 -76.7797 313° West 355 409 16,100  Climbing Cleveland Center
10:44 42.4467 -76.8800 312° West 350 403 16,100 -60 Level Cleveland Center
10:45 42.5081 -76.9719 312° West 358 412 16,000 -240 Descending Cleveland Center
10:45 42.5364 -77.0156 311° West 363 418 15,800 -600 Descending Cleveland Center
10:46 42.5881 -77.0692 323° Northwest 355 409 15,400 -1,020 Descending Cleveland Center
10:46 42.6142 -77.1042 315° West 365 420 14,800 -1,140 Descending Cleveland Center
10:47 42.6614 -77.1553 321° Northwest 355 409 14,300 -1,020 Descending Cleveland Center
10:47 42.6853 -77.1822 320° Northwest 309 356 13,800 -1,020 Descending Cleveland Center
10:48 42.7219 -77.2200 323° Northwest 335 386 13,300 -1,020 Descending Cleveland Center
10:48 42.7519 -77.2550 319° Northwest 300 345 12,800 -1,020 Descending Cleveland Center
10:49 42.7942 -77.2697 346° North 309 356 12,300 -1,200 Descending Cleveland Center
10:49 42.8342 -77.2875 342° North 306 352 11,600 -1,500 Descending Cleveland Center
10:50 42.8764 -77.2994 348° North 296 341 10,800 -1,500 Descending Cleveland Center
10:50 42.9142 -77.3144 344° North 297 342 10,100 -1,500 Descending Cleveland Center
10:51 42.9561 -77.3264 348° North 296 341 9,300 -1,500 Descending Cleveland Center
10:51 42.9922 -77.3417 343° North 292 336 8,600 -1,740 Descending Cleveland Center
10:52 43.0319 -77.3536 348° North 290 334 7,600 -1,920 Descending Cleveland Center
10:52 43.0742 -77.3686 345° North 280 322 6,700 -1,680 Descending Cleveland Center
10:53 43.1056 -77.3756 351° North 279 321 5,900 -2,040 Descending Cleveland Center
10:53 43.1456 -77.3906 345° North 254 292 4,700 -2,100 Descending Cleveland Center
10:54 43.1772 -77.4031 344° North 274 315 3,800 -1,980 Descending Cleveland Center
10:54 43.2114 -77.4300 330° Northwest 267 307 2,700 -900 Descending Cleveland Center
10:55 43.2528 -77.4933 312° West 231 266 2,500 -120 Descending Cleveland Center
10:56 43.2422 -77.5736 260° West 189 217 2,500  Level Cleveland Center
10:57 43.2075 -77.6039 212° Southwest 120 138 2,500 -300 Level Cleveland Center
10:58 43.1769 -77.6253 207° Southwest 119 137 1,900 -720 Descending Cleveland Center
10:59 43.1464 -77.6581 218° Southwest 141 162 1,100 -840 Descending Cleveland Center